DECAYED

FENGYUN 1C DEB, 36254 (Decayed)

Orbit data source: Space-Track

FENGYUN 1C DEB, 36254 was space debris in SSO originally from a launch on Mon, 10 May 1999 UTC launched from the Taiyaun Space Center, China (TSC). Fengyun 1C debris stems from the Chinese weather satellite Fengyun-1C, which was intentionally destroyed by a Chinese anti-satellite missile in 2007. This event dramatically increased the amount of space debris, with thousands of trackable fragments posing hazards to satellites and human spaceflight. The Fengyun 1C debris cloud has become a focal point in discussions about space sustainability and the need for international regulations to prevent the creation of new debris.

Not visible in the next 10 days
Identifier
36254, 1999-025DWF
Orbit
Decayed
Country
Flag of CNCN / PRC
Related business
Manufacturer
Unknown
Mission
Decayed spacecraft
Bus & Motor
Unknown
Mass
Unknown
Launch date (UTC)
1999-05-10 (27 years ago)
Launch vehicle
Unknown
Launch site
Taiyaun Space Center, China (TSC)
Object type
Payload
Rocket body
Debris
Shape & HBR
Unknown shape, 0.1 m
Radar Cross Section
Small (<0.1 m²)

Expand to show TLE details & history
Last TLE update: 4 months ago

TLE from 4 months ago
0 FENGYUN 1C DEB
1 36254U 99025DWF 26125.22098926  .02809038  64233-2  84265-2 0  9996
2 36254  99.5046 127.0286 0015770 214.0738 145.9518 15.93663482629823
Epoch: 2026-05-05T05:18Z
TLE epoch observation values (Epoch: 2026-05-05T05:18:13.472Z)
Latitude
-0.00006°
Longitude
-175.62647°
Altitude
303.883 km
Speed
7.72 km/s
True Right ascension
08h 28m 06s
True Declination
0° 00' 00"
Sunlit
Object was in daylight at epoch
Visualization orbit readout
Latitude
Unknown
Longitude
Unknown
Altitude
Unknown
Speed
Unknown
Apparent Right ascension
Unknown
Apparent Declination
Unknown
Sunlit
N/A
Visualization observer readout
Local Sidereal Time
00:03:30
Azimuth
Unknown
Elevation
Unknown
Doppler factor
Unknown
Orbital elements
Apogee altitude
299.529 km
Perigee altitude
278.501 km
Semi-major axis
6,667.152 km
Eccentricity
0.00158
Inclination
99.5046°
RAAN
127.0286°
Arg. of periapsis
214.0738°
True anomaly
146.05281°
Mean anomaly
145.9518°
Eccentric anomaly
146.00232°
Mean motion
3.98688 °/min
Orbital period
90.3 mins
BSTAR
0.0084265
Loading maneuver chart data...
Computing Atmospheric mass density...
Loading historical data...
Loading historical data...
Loading historical data...
Loading historical data...
Loading historical data...
Loading historical data...
Loading historical data...

Documentation

Showing up to 5 results
|